694  
NZUS93 KARX 270010  
HRRWXR  
 
CURRENT HOURLY OBSERVATIONS ACROSS  
MUCH OF THE UPPER MISSISSIPPI VALLEY  
NATIONAL WEATHER SERVICE LA CROSSE WI  
700 PM CDT SUN MAR 26 2017  
 
   
..SOUTHEAST MINNESOTA
 
 
 
CITY SKY/WX TMP DP RH WIND PRES REMARKS  
ROCHESTER LGT RAIN 40 39 97 N7 29.89S  
ROCHESTER/MAYO CLOUDY 40 40 100 N3 29.89F  
WINONA CLOUDY 41 37 87 N7 29.91S  
AUSTIN CLOUDY 41 39 93 N6 29.90R FOG  
ALBERT LEA CLOUDY 41 39 93 N5 29.90S FOG  
DODGE CENTER CLOUDY 39 37 93 NW7 29.91R WCI 34  
PRESTON CLOUDY 39 37 92 N8 29.89F WCI 33  
OWATONNA CLOUDY 41 39 93 NW6 29.92R FOG  
FARIBAULT CLOUDY 43 39 87 NW3 29.92S  

 
   
..ELSEWHERE IN MINNESOTA
 
 
 
CITY SKY/WX TMP DP RH WIND PRES REMARKS  
MINNEAPOLIS CLOUDY 43 36 76 N7 29.93R  
INTNL FALLS CLOUDY 42 31 64 NE3 29.92S  
DULUTH FOG 33 33 100 CALM 29.92S VSB 1/8  
RED WING CLOUDY 43 39 87 CALM 29.91R  
REDWOOD FALLS CLOUDY 45 36 70 N6 29.93S  
MANKATO CLOUDY 41 38 89 NW8 29.93R  
WORTHINGTON CLOUDY 41 38 89 N10 29.92S  
FAIRMONT CLOUDY 41 38 89 N6 29.92S  

 
   
..SOUTHWEST WISCONSIN
 
 
 
CITY SKY/WX TMP DP RH WIND PRES REMARKS  
LA CROSSE CLOUDY 43 40 89 NW6 29.89R FOG  
PRAIRIE DU CHI CLOUDY 44 41 91 NW5 29.88R  
BOSCOBEL CLOUDY 46 43 89 N3 29.87R  
LONE ROCK CLOUDY 44 41 89 NW5 29.87R  
PLATTEVILLE CLOUDY 45 45 100 NW5 29.87R  
FORT MC COY CLOUDY 40 39 97 NW5 29.90R  
CAMP DOUGLAS CLOUDY 39 39 100 N5 29.87S  
MAUSTON-NEW LI CLOUDY 39 39 99 CALM 29.86S FOG  
VIROQUA CLOUDY 41 41 100 NW6 29.87R  
WIS DELLS DRIZZLE 40 39 95 CALM 29.87R  

 
   
..ELSEWHERE IN WISCONSIN
 
 
 
CITY SKY/WX TMP DP RH WIND PRES REMARKS  
MILWAUKEE FOG 42 39 89 NE3 29.85R VSB 1  
MADISON LGT RAIN 42 41 96 NW5 29.86R FOG  
GREEN BAY CLOUDY 38 38 100 NE6 29.87R FOG WCI 33  
EAU CLAIRE CLOUDY 43 38 82 CALM 29.89R  
BLACK RVR FLS CLOUDY 41 41 99 CALM 29.88R  
MEDFORD RAIN 39 38 99 N3 29.86S  
WAUSAU LGT RAIN 39 38 96 CALM 29.86R FOG  
WIS RAPIDS LGT RAIN 39 39 100 N3 29.88R FOG  
MARSHFIELD LGT RAIN 39 37 92 N3 29.86R FOG  
RICE LAKE CLOUDY 41 38 88 CALM 29.91S  

 
   
..NORTHEAST IOWA
 
 
 
CITY SKY/WX TMP DP RH WIND PRES REMARKS  
WATERLOO CLOUDY 46 42 86 NW8 29.89R  
DUBUQUE CLOUDY 46 44 93 N5 29.85R  
DECORAH CLOUDY 43 41 93 N8 29.87S  
MASON CITY CLOUDY 43 40 89 NW8 29.91R  
CHARLES CITY CLOUDY 43 43 100 N8 29.89S  
OELWEIN CLOUDY 45 45 100 NW7 29.89R  

 
   
..ELSEWHERE IN IOWA
 
 
 
CITY SKY/WX TMP DP RH WIND PRES REMARKS  
DES MOINES CLOUDY 48 43 82 N7 29.89F  
IOWA CITY CLOUDY 50 45 83 NW9 29.91R  
FORT DODGE CLOUDY 43 39 87 N5 29.92S  
MARSHALLTOWN CLOUDY 46 45 96 NW7 29.89R  
CEDAR RAPIDS CLOUDY 46 46 100 NW6 29.88R  

 
   
..NORTHERN ILLINOIS
 
 
 
CITY SKY/WX TMP DP RH WIND PRES REMARKS  
CHICAGO-OHARE CLOUDY 57 50 77 W12 29.83R  
CHICAGO-MIDWAY CLOUDY 56 52 86 SW10 29.84R  
MOLINE CLOUDY 51 48 89 W10 29.88R FOG  
ROCKFORD LGT RAIN 54 52 93 W7 29.86R FOG  
PEORIA CLOUDY 51 47 86 W9 29.91R  

 
 
NOTE: "FAIR" INDICATES FEW OR NO CLOUDS BELOW 12,000 FEET WITH NO  
SIGNIFICANT WEATHER AND/OR OBSTRUCTIONS TO VISIBILITY. WIND  
SPEEDS ARE IN MILES-PER-HOUR.  
 
 
CLICK HERE TO GO TO PREVIOUS BULLETINS.

The Nexlab WI Page
The Nexlab IA Page
The Nexlab MN Page Main Text Page